This demonstration page uses our WeatherBlox Daily Observations layout. Learn more.

38.88101, -77.10428

Hourly Observations for October 15, 2020

Temp ( °F °C ) Dew Point ( °F °C ) Humidity (%) Winds ( mph kmh ) Pressure ( in mb ) Visibility ( mi km ) Precip ( " mm )
12:52 am 00:52 Mostly Clear 59 15 53 11.7 81 81 S 9 15 30.03 1017 10 16.0934 0 0
1:52 am 01:52 Clear 59 15 54 12.2 83 83 S 8 13 30.01 1016 10 16.0934 0 0
2:52 am 02:52 Clear 58 14.4 53 11.7 84 84 SSW 9 15 30.02 1017 10 16.0934 0 0
3:52 am 03:52 Clear 58 14.4 52 11.1 81 81 SSW 8 13 30.01 1016 10 16.0934 0 0
4:52 am 04:52 Mostly Clear 58 14.4 52 11.1 81 81 S 9 15 30.02 1017 10 16.0934 0 0
5:52 am 05:52 Mostly Clear 58 14.4 53 11.7 84 84 S 10 17 30.01 1016 10 16.0934 0 0
6:52 am 06:52 Mostly Clear 56 13.3 51 10.6 84 84 SSW 5 7 30.02 1017 10 16.0934 0 0
7:52 am 07:52 Mostly Sunny 58 14.4 52 11.1 81 81 S 12 19 30.02 1017 10 16.0934 0 0
8:52 am 08:52 Partly Cloudy 60 15.6 53 11.7 78 78 S 8 13 30.03 1017 10 16.0934 0 0
9:52 am 09:52 Mostly Sunny 64 17.8 53 11.7 68 68 SSW 14 22 30.03 1017 10 16.0934 0 0
10:52 am 10:52 Mostly Sunny 68 20 56 13.3 65 65 SW 16 26 30.03 1017 10 16.0934 0 0
11:52 am 11:52 Partly Cloudy 70 21.1 56 13.3 61 61 SSW 15 24 30.01 1016 10 16.0934 0 0
12:52 pm 12:52 Mostly Sunny 72 22.2 59 15 64 64 S 15 24 29.97 1015 10 16.0934 0 0
1:52 pm 13:52 Partly Cloudy 74 23.3 59 15 60 60 S 14 22 29.92 1013 10 16.0934 0 0
2:52 pm 14:52 Partly Cloudy 76 24.4 58 14.4 54 54 SSW 18 30 29.91 1013 10 16.0934 0 0
3:52 pm 15:52 Partly Cloudy 75 23.9 59 15 58 58 S 17 28 29.91 1013 10 16.0934 0 0
4:52 pm 16:52 Partly Cloudy 75 23.9 60 15.6 60 60 SSW 18 30 29.91 1013 10 16.0934 0 0
5:52 pm 17:52 Partly Cloudy 73 22.8 60 15.6 64 64 S 14 22 29.9 1013 10 16.0934 0 0
6:52 pm 18:52 Mostly Clear 70 21.1 61 16.1 73 73 S 12 19 29.91 1013 10 16.0934 0 0
7:52 pm 19:52 Mostly Clear 69 20.6 62 16.7 78 78 S 9 15 29.93 1013 10 16.0934 0 0
8:52 pm 20:52 Mostly Cloudy 69 20.6 60 15.6 73 73 S 9 15 29.94 1014 10 16.0934 0 0
9:52 pm 21:52 Partly Cloudy 68 20 60 15.6 76 76 S 9 15 29.95 1014 10 16.0934 0 0
10:52 pm 22:52 Partly Cloudy 67 19.4 61 16.1 81 81 S 9 15 29.95 1014 10 16.0934 0 0
11:52 pm 23:52 Partly Cloudy 67 19.4 61 16.1 81 81 S 9 15 29.96 1014 10 16.0934 0 0

Powered by AerisWeather